Location: Reutlingen
(48.4923°N, 9.2131°E)
Time: 01:41:45
(UTC+01:00)

ISS - Visible Passes

Search period start: 08 December 2021 00:00
Search period end: 18 December 2021 00:00
Orbit: 417 x 422 km, 51.6° (Epoch: 07 December)

Date Brightness Start Highest point End Pass type
(mag) Time Alt. Az. Time Alt. Az. Time Alt. Az.
08 Dec -0.8 18:04:22 10° W 18:06:45 18° SW 18:09:08 10° S visible
09 Dec -1.3 17:16:36 10° W 17:19:31 26° SW 17:22:25 10° SSE visible
11 Dec -0.1 17:19:53 10° WSW 17:21:08 12° SW 17:22:24 10° SSW visible
